Date String (YYYY-MM-DD hh:mm:ss) UTC,Instrument flags,Ambient pressure (hPa),Sample flow (lpm),Bypass flow (lpm),Sample temperature (°C),Ambient temperature (°C),ASC tube jacket temperature (°C),LED temperature (°C),Box temperature (°C),Sample RH (%),Span deviation,Mass concentration (μg/m³),Mass concentration (μg/m³),Mass concentration (μg/m³)
DateTimeUTC,F1_M11,P_M11,Q1_M11,Q2_M11,T1_M11,T2_M11,T3_M11,T4_M11,T5_M11,U1_M11,ZSPAN_M11,X0_M11,X2_M11,X1_M11
2022-09-23 22:00:00,,0826.0,5.01,0.00,29.9,28.3,00.0,38.6,31.8,09.8,0000.0,0004.57,0002.05,0001.47
2022-09-23 22:01:00,,0825.8,5.00,0.00,29.9,28.5,00.0,38.6,31.9,09.7,0000.0,0004.21,0002.05,0001.46
2022-09-23 22:02:00,,0825.8,4.99,0.00,30.0,28.7,00.0,38.6,31.9,09.4,0000.0,0004.22,0002.05,0001.45
2022-09-23 22:03:00,,0825.7,5.01,0.00,30.0,28.8,00.0,38.6,32.0,09.7,0000.0,0004.63,0002.03,0001.46
2022-09-23 22:04:00,,0825.8,5.00,0.00,30.0,28.9,00.0,38.7,32.0,09.6,0000.0,0003.88,0002.00,0001.46
2022-09-23 22:05:00,,0825.8,4.99,0.00,30.1,28.7,00.0,38.7,32.0,10.0,0000.0,0004.78,0001.97,0001.45
2022-09-23 22:06:00,,0825.9,5.01,0.00,30.0,27.3,00.0,38.7,31.9,09.9,0000.0,0004.73,0001.97,0001.46
2022-09-23 22:07:00,,0825.9,5.01,0.00,30.0,26.5,00.0,38.6,31.7,09.3,0000.0,0004.80,0001.99,0001.48
2022-09-23 22:08:00,,0825.7,5.00,0.00,29.9,26.7,00.0,38.6,31.7,09.5,0000.0,0004.85,0002.01,0001.48
2022-09-23 22:09:00,,0825.6,5.00,0.00,29.8,26.9,00.0,38.5,31.5,09.4,0000.0,0004.81,0002.01,0001.49
2022-09-23 22:10:00,,0825.6,4.99,0.00,29.8,27.2,00.0,38.5,31.5,09.3,0000.0,0005.16,0002.07,0001.50
2022-09-23 22:11:00,,0825.6,5.00,0.00,29.8,27.6,00.0,38.5,31.6,09.4,0000.0,0005.28,0002.08,0001.52
2022-09-23 22:12:00,,0825.7,5.01,0.00,29.8,27.8,00.0,38.5,31.6,09.4,0000.0,0005.32,0002.08,0001.53
2022-09-23 22:13:00,,0825.7,5.00,0.00,29.8,28.1,00.0,38.5,31.7,09.5,0000.0,0005.26,0002.07,0001.53
2022-09-23 22:14:00,,0825.8,5.00,0.00,29.8,28.2,00.0,38.5,31.7,09.4,0000.0,0005.56,0002.06,0001.53
2022-09-23 22:15:00,,0825.7,5.00,0.00,29.8,28.4,00.0,38.5,31.8,09.4,0000.0,0006.14,0002.08,0001.54
2022-09-23 22:16:00,,0825.8,5.00,0.00,29.9,28.6,00.0,38.5,31.8,09.5,0000.0,0005.19,0002.10,0001.53
2022-09-23 22:17:00,,0825.8,5.00,0.00,29.9,28.7,00.0,38.6,31.9,09.4,0000.0,0005.17,0002.08,0001.53
2022-09-23 22:18:00,,0825.7,5.01,0.00,30.0,28.8,00.0,38.6,31.9,09.5,0000.0,0005.13,0002.03,0001.52
2022-09-23 22:19:00,,0825.7,4.99,0.00,30.0,29.0,00.0,38.6,32.0,09.5,0000.0,0005.12,0002.03,0001.53
2022-09-23 22:20:00,,0825.7,5.00,0.00,30.0,29.0,00.0,38.6,32.0,09.6,0000.0,0005.24,0002.08,0001.53
2022-09-23 22:21:00,,0825.6,5.01,0.00,30.1,28.8,00.0,38.6,32.0,09.0,0000.0,0004.73,0001.97,0001.50
2022-09-23 22:22:00,,0825.7,5.00,0.00,30.1,27.5,00.0,38.6,31.9,08.9,0000.0,0004.55,0001.96,0001.49
2022-09-23 22:23:00,,0825.7,5.01,0.00,30.0,26.6,00.0,38.6,31.8,09.4,0000.0,0004.71,0002.04,0001.50
2022-09-23 22:24:00,,0825.8,4.99,0.00,30.0,26.7,00.0,38.5,31.7,09.2,0000.0,0004.74,0002.06,0001.51
2022-09-23 22:25:00,,0825.7,5.01,0.00,29.9,27.0,00.0,38.5,31.6,09.0,0000.0,0003.96,0002.04,0001.51
2022-09-23 22:26:00,,0825.7,5.01,0.00,29.8,27.3,00.0,38.5,31.6,09.0,0000.0,0003.24,0002.05,0001.52
2022-09-23 22:27:00,,0825.7,5.01,0.00,29.8,27.6,00.0,38.5,31.6,09.0,0000.0,0003.24,0002.02,0001.51
2022-09-23 22:28:00,,0825.7,4.98,0.00,29.8,27.9,00.0,38.5,31.7,08.8,0000.0,0003.29,0002.02,0001.50
2022-09-23 22:29:00,,0825.7,5.02,0.00,29.8,28.1,00.0,38.5,31.8,09.0,0000.0,0003.19,0002.02,0001.49
2022-09-23 22:30:00,,0825.6,4.99,0.00,29.9,28.3,00.0,38.5,31.8,08.8,0000.0,0003.57,0002.05,0001.48
2022-09-23 22:31:00,,0825.6,5.00,0.00,29.9,28.5,00.0,38.6,31.8,09.1,0000.0,0003.51,0002.01,0001.47
2022-09-23 22:32:00,,0825.6,5.00,0.00,29.9,28.6,00.0,38.6,31.9,08.9,0000.0,0003.54,0002.01,0001.48
2022-09-23 22:33:00,,0825.7,4.99,0.00,29.9,28.7,00.0,38.6,31.9,08.8,0000.0,0003.44,0001.98,0001.47
2022-09-23 22:34:00,,0825.7,5.00,0.00,30.0,28.9,00.0,38.6,32.0,08.5,0000.0,0003.29,0001.88,0001.45
2022-09-23 22:35:00,,0825.7,5.00,0.00,30.0,29.0,00.0,38.6,32.0,09.2,0000.0,0003.23,0001.85,0001.43
2022-09-23 22:36:00,,0825.7,4.99,0.00,30.1,28.7,00.0,38.6,32.0,08.8,0000.0,0003.25,0001.85,0001.42
2022-09-23 22:37:00,,0825.7,5.00,0.00,30.0,27.3,00.0,38.6,31.9,08.3,0000.0,0003.18,0001.82,0001.39
2022-09-23 22:38:00,,0825.8,5.00,0.00,30.0,26.4,00.0,38.6,31.7,08.5,0000.0,0005.34,0001.96,0001.39
2022-09-23 22:39:00,,0825.7,5.00,0.00,29.9,26.6,00.0,38.5,31.7,08.7,0000.0,0006.59,0001.98,0001.37
2022-09-23 22:40:00,,0825.7,5.00,0.00,29.8,26.9,00.0,38.5,31.6,08.8,0000.0,0006.73,0001.98,0001.36
2022-09-23 22:41:00,,0825.6,5.00,0.00,29.8,27.2,00.0,38.5,31.6,08.5,0000.0,0007.12,0001.92,0001.35
2022-09-23 22:42:00,,0825.6,5.00,0.00,29.8,27.6,00.0,38.5,31.6,08.3,0000.0,0007.45,0001.88,0001.34
2022-09-23 22:43:00,,0825.6,5.01,0.00,29.8,27.8,00.0,38.5,31.7,08.0,0000.0,0007.42,0001.87,0001.33
2022-09-23 22:44:00,,0825.6,5.00,0.00,29.8,28.1,00.0,38.5,31.7,08.5,0000.0,0007.41,0001.86,0001.32
2022-09-23 22:45:00,,0825.6,4.99,0.00,29.8,28.3,00.0,38.5,31.8,08.5,0000.0,0007.38,0001.87,0001.31
2022-09-23 22:46:00,,0825.6,5.01,0.00,29.9,28.5,00.0,38.5,31.8,08.2,0000.0,0007.42,0001.87,0001.30
2022-09-23 22:47:00,,0825.6,5.01,0.00,29.9,28.6,00.0,38.5,31.9,08.1,0000.0,0007.41,0001.87,0001.29
2022-09-23 22:48:00,,0825.6,4.99,0.00,29.9,28.7,00.0,38.6,31.9,07.9,0000.0,0007.47,0001.86,0001.29
2022-09-23 22:49:00,,0825.6,5.01,0.00,30.0,28.8,00.0,38.6,32.0,07.8,0000.0,0005.45,0001.73,0001.28
2022-09-23 22:50:00,,0825.6,5.00,0.00,30.0,28.9,00.0,38.6,32.0,08.0,0000.0,0004.28,0001.71,0001.28
2022-09-23 22:51:00,,0825.7,5.00,0.00,30.0,29.0,00.0,38.6,32.0,07.8,0000.0,0004.31,0001.72,0001.27
2022-09-23 22:52:00,,0825.7,5.01,0.00,30.1,29.1,00.0,38.7,32.1,08.1,0000.0,0003.52,0001.76,0001.27
2022-09-23 22:53:00,,0825.8,4.99,0.00,30.1,29.2,00.0,38.7,32.1,08.4,0000.0,0003.05,0001.76,0001.27
2022-09-23 22:54:00,,0825.7,5.01,0.00,30.1,28.3,00.0,38.7,32.1,07.9,0000.0,0003.03,0001.74,0001.26
2022-09-23 22:55:00,,0825.7,4.99,0.00,30.1,26.8,00.0,38.7,31.9,08.0,0000.0,0003.12,0001.77,0001.27
2022-09-23 22:56:00,,0825.7,5.00,0.00,30.0,26.6,00.0,38.6,31.8,08.3,0000.0,0003.10,0001.76,0001.27
2022-09-23 22:57:00,,0825.7,4.99,0.00,30.0,26.8,00.0,38.6,31.7,08.5,0000.0,0002.94,0001.74,0001.28
2022-09-23 22:58:00,,0825.6,5.00,0.00,29.9,27.1,00.0,38.6,31.7,08.3,0000.0,0002.90,0001.72,0001.28
2022-09-23 22:59:00,,0825.7,5.00,0.00,29.9,27.5,00.0,38.6,31.7,08.0,0000.0,0002.76,0001.70,0001.28
